[[{"header":{"parameterUnit":"m.s-1","parameterCategory":1,"la1":30.2991,"la2":30.254,"lo1":-89.0895,"lo2":-89.0444,"dy":0.0017,"dx":0.0017,"nx":28,"ny":28,"refTime":"2024-05-07T09:00:00:Z","depth":0,"parameterNumber":2,"parameterNumberName":"U-component_of_WINDS"},"data":[0,0,0,0,0,0,0,0,0,0,0,0,0,0,0,0,0,0,0,0,0,0,0,0,0,0,0,0,0,0,0,0,0,0,0,0,0,0,0,0,0,0,0,0,0,0,0,0,0,0,0,0,0,0,0,0,0,0,-0.6313,-0.6313,0,-0.6298,-0.6298,-0.6298,-0.6274,-0.6274,-0.6273,-0.6273,-0.6259,-0.6259,-0.626,0,0,0,0,0,0,0,0,0,0,0,0,0,-0.6323,-0.6323,-0.6313,-0.6313,-0.6312,-0.6298,-0.6298,-0.6298,-0.6274,-0.6274,-0.6273,-0.6272,-0.6259,-0.6259,-0.626,0,0,0,0,0,0,0,0,0,0,0,0,0,-0.6315,-0.6323,-0.6313,-0.6299,-0.6297,-0.6298,-0.6298,-0.6298,-0.6274,-0.6274,-0.6273,-0.6272,-0.6259,-0.6259,-0.626,-0.6273,0,0,-0.626,-0.626,0,0,0,0,0,0,0,0,-0.6315,-0.6314,-0.6301,-0.63,-0.6298,-0.6287,-0.6297,-0.6289,-0.6274,-0.6283,-0.6273,-0.6272,-0.6269,-0.6269,-0.6267,-0.6272,-0.6272,-0.626,-0.626,-0.626,-0.626,0,0,0,0,0,0,0,-0.6316,-0.6315,-0.6307,-0.6301,-0.6299,-0.6294,-0.6292,-0.6295,-0.628,-0.6282,-0.628,-0.6279,-0.6268,-0.6267,-0.6267,-0.6272,-0.626,-0.626,-0.626,-0.626,-0.6289,-0.629,0,0,0,0,0,0,-0.6318,-0.6316,-0.6307,-0.6306,-0.6305,-0.6295,-0.6292,-0.6291,-0.628,-0.6278,-0.628,-0.6278,-0.6267,-0.6267,-0.6266,-0.6283,-0.626,-0.626,-0.626,-0.6289,-0.6289,-0.629,0,0,0,0,0,0,-0.6318,-0.6318,-0.6308,-0.6311,-0.6309,-0.6295,-0.6294,-0.6291,-0.629,-0.6278,-0.6275,-0.6281,-0.6267,-0.6266,-0.6272,-0.6282,-0.626,-0.626,-0.6288,-0.6289,-0.629,-0.6315,0,0,0,0,0,0,-0.6319,-0.6318,-0.6322,-0.6311,-0.6309,-0.6313,-0.6295,-0.6292,-0.629,-0.6288,-0.6279,-0.6276,-0.6266,-0.6272,-0.6272,-0.6281,-0.626,-0.6287,-0.6288,-0.6289,-0.6313,-0.6317,-0.632,0,0,0,0,0,-0.6319,-0.633,-0.6323,-0.6322,-0.6314,-0.6314,-0.6313,-0.63,-0.6291,-0.6296,-0.6288,-0.6277,-0.6281,-0.6273,-0.6273,-0.6282,-0.6286,-0.6288,-0.6289,-0.6312,-0.6316,-0.632,0,0,0,0,0,0,-0.6343,-0.6328,-0.632,-0.6327,-0.6322,-0.631,-0.6315,-0.6305,-0.6303,-0.6301,-0.6286,-0.6285,-0.6293,-0.6288,-0.6279,-0.6296,-0.6282,-0.6283,-0.6299,-0.6303,-0.6306,-0.6307,-0.626,0,0,0,0,0,-0.6349,-0.635,-0.6337,-0.6344,-0.6342,-0.6329,-0.6329,-0.632,-0.6314,-0.6312,-0.6305,-0.63,-0.6301,-0.6301,-0.6301,-0.6312,-0.6311,-0.6319,-0.6322,-0.6325,-0.6327,-0.6334,-0.6338,-0.6296,-0.6296,-0.6296,0,0,-0.6362,-0.6353,-0.6355,-0.6349,-0.6344,-0.6346,-0.6328,-0.633,-0.6332,-0.6312,-0.6318,-0.6312,-0.6307,-0.6316,-0.6319,-0.6312,-0.6338,-0.6327,-0.6329,-0.633,-0.6336,-0.634,-0.6344,-0.6297,-0.6297,-0.6296,0,0,-0.6386,-0.6379,-0.6385,-0.6381,-0.6373,-0.6365,-0.6366,-0.6356,-0.6352,-0.6357,-0.6343,-0.6345,-0.6345,-0.6342,-0.6341,-0.6365,-0.6355,-0.6365,-0.6383,-0.639,-0.6394,-0.6397,-0.6407,-0.641,-0.6367,-0.6367,-0.6367,0,-0.6402,-0.6404,-0.639,-0.6393,-0.6392,-0.6374,-0.6381,-0.6378,-0.6371,-0.6371,-0.6363,-0.6364,-0.6359,-0.6367,-0.6373,-0.6372,-0.6375,-0.6367,-0.6394,-0.6397,-0.64,-0.6409,-0.6413,-0.6369,-0.6369,-0.6368,-0.6368,0,-0.6426,-0.6427,-0.6433,-0.6427,-0.6426,-0.6431,-0.6419,-0.642,-0.6411,-0.6404,-0.641,-0.6403,-0.6402,-0.6403,-0.6395,-0.6411,-0.6407,-0.6397,-0.6383,-0.6405,-0.6414,-0.6417,-0.6371,-0.637,-0.637,-0.6369,0,0,-0.6464,-0.6451,-0.6453,-0.6451,-0.6442,-0.6443,-0.6448,-0.6446,-0.6448,-0.6444,-0.6449,-0.6451,-0.6441,-0.644,-0.6431,-0.6437,-0.6458,-0.6426,-0.6426,-0.6433,-0.6478,-0.6487,-0.6491,-0.6451,-0.6452,-0.6452,-0.6479,0,-0.6487,-0.6495,-0.6483,-0.6493,-0.6495,-0.6479,-0.6484,-0.648,-0.6473,-0.6475,-0.6468,-0.647,-0.6457,-0.6456,-0.6461,-0.6455,-0.6467,-0.6452,-0.6457,-0.6457,-0.646,-0.6495,-0.6504,-0.653,-0.6482,-0.6483,-0.6483,0,-0.6515,-0.6513,-0.6524,-0.6515,-0.6516,-0.652,-0.6518,-0.652,-0.6515,-0.651,-0.6509,-0.6498,-0.6504,-0.649,-0.6498,-0.6488,-0.6489,-0.6486,-0.6487,-0.6488,-0.6472,-0.6499,-0.6537,-0.6542,-0.6488,-0.6488,-0.6487,0,-0.6544,-0.6544,-0.655,-0.6549,-0.6539,-0.6543,-0.6539,-0.6533,-0.6533,-0.6532,-0.6532,-0.6532,-0.6532,-0.6532,-0.6522,-0.6512,-0.6532,-0.6517,-0.6529,-0.653,-0.6535,-0.6535,-0.6576,-0.6534,-0.6534,-0.6534,-0.6534,0,-0.6572,-0.658,-0.6564,-0.6568,-0.6577,-0.6563,-0.6572,-0.6567,-0.6562,-0.6566,-0.6552,-0.6556,-0.6542,-0.6545,-0.6537,-0.6546,-0.6546,-0.6543,-0.6541,-0.6545,-0.6546,-0.6547,-0.6545,-0.6535,-0.6535,-0.6534,-0.6534,0,-0.6606,-0.6595,-0.6602,-0.6592,-0.659,-0.6597,-0.6589,-0.6593,-0.6586,-0.6591,-0.6592,-0.6581,-0.6584,-0.6574,-0.6575,-0.657,-0.6583,-0.6578,-0.6585,-0.6584,-0.6598,-0.6597,-0.6642,-0.6648,-0.66,-0.6601,-0.6601,0,-0.6626,-0.6631,-0.6622,-0.6623,-0.662,-0.6622,-0.6623,-0.661,-0.6611,-0.6607,-0.6612,-0.6613,-0.6614,-0.6619,-0.6612,-0.6613,-0.6609,-0.6624,-0.6609,-0.6613,-0.6611,-0.6611,-0.6612,-0.6628,-0.6628,-0.6629,-0.6629,0,-0.6661,-0.6656,-0.6656,-0.6655,-0.6656,-0.6655,-0.6652,-0.6655,-0.6641,-0.6643,-0.6645,-0.6646,-0.6647,-0.665,-0.6649,-0.6646,-0.6636,-0.6634,-0.6637,-0.6642,-0.6646,-0.6646,-0.6595,-0.6633,-0.6633,-0.6633,-0.6632,-0.6632,-0.6689,-0.6694,-0.6689,-0.669,-0.6687,-0.6686,-0.669,-0.6683,-0.6685,-0.6685,-0.6677,-0.6682,-0.6678,-0.6677,-0.6675,-0.6679,-0.6672,-0.6676,-0.6677,-0.6679,-0.6682,-0.6645,-0.6679,-0.6678,-0.6678,-0.6678,-0.6678,0,-0.6726,-0.6722,-0.6723,-0.6721,-0.6722,-0.6711,-0.6709,-0.6711,-0.6715,-0.6712,-0.6713,-0.6717,-0.6719,-0.6712,-0.6714,-0.6719,-0.6714,-0.672,-0.672,-0.672,-0.6688,-0.6685,-0.6723,-0.6723,-0.6723,-0.6723,-0.6723,-0.6723,-0.6745,-0.6753,-0.6747,-0.6754,-0.675,-0.6754,-0.6754,-0.6753,-0.675,-0.6755,-0.6757,-0.6752,-0.6748,-0.6749,-0.6752,-0.6749,-0.6751,-0.6759,-0.6756,-0.6726,-0.6722,-0.6718,-0.6715,-0.6759,-0.6759,-0.6787,-0.6788,-0.6788]},{"header":{"parameterUnit":"m.s-1","parameterCategory":1,"la1":30.2991,"la2":30.254,"lo1":-89.0895,"lo2":-89.0444,"dy":0.0017,"dx":0.0017,"nx":28,"ny":28,"refTime":"2024-05-07T09:00:00:Z","depth":0,"parameterNumber":3,"parameterNumberName":"V-component_of_WINDS"},"data":[0,0,0,0,0,0,0,0,0,0,0,0,0,0,0,0,0,0,0,0,0,0,0,0,0,0,0,0,0,0,0,0,0,0,0,0,0,0,0,0,0,0,0,0,0,0,0,0,0,0,0,0,0,0,0,0,0,0,4.9503,4.9503,0,4.9528,4.9529,4.9529,4.9476,4.9474,4.9472,4.9471,4.9493,4.9495,4.9498,0,0,0,0,0,0,0,0,0,0,0,0,0,4.9405,4.9407,4.9503,4.9503,4.9504,4.9528,4.9529,4.9529,4.9476,4.9474,4.9472,4.947,4.9492,4.9495,4.9498,0,0,0,0,0,0,0,0,0,0,0,0,0,4.9441,4.9408,4.9503,4.948,4.9479,4.9528,4.9529,4.9529,4.9476,4.9474,4.9471,4.9469,4.9492,4.9495,4.9498,4.957,0,0,4.9508,4.951,0,0,0,0,0,0,0,0,4.9439,4.9444,4.9483,4.9482,4.948,4.9496,4.9502,4.9543,4.9477,4.9477,4.9471,4.9468,4.9496,4.9499,4.9509,4.9571,4.9572,4.9508,4.951,4.9512,4.9513,0,0,0,0,0,0,0,4.9436,4.9443,4.9513,4.9484,4.9482,4.9468,4.947,4.951,4.9501,4.9477,4.9473,4.9477,4.9495,4.9506,4.9509,4.9572,4.9508,4.9511,4.9513,4.9515,4.9694,4.9696,0,0,0,0,0,0,4.9437,4.9441,4.9512,4.9514,4.9453,4.9472,4.9474,4.9494,4.95,4.9499,4.9479,4.9474,4.9502,4.9505,4.951,4.9594,4.9512,4.9515,4.9517,4.9691,4.9694,4.9697,0,0,0,0,0,0,4.9435,4.9444,4.9511,4.9477,4.9484,4.9476,4.9498,4.9495,4.9507,4.9502,4.95,4.9493,4.95,4.9505,4.9556,4.9594,4.9516,4.9519,4.9688,4.9692,4.9696,4.9763,0,0,0,0,0,0,4.9433,4.9444,4.9472,4.9478,4.9486,4.9558,4.9501,4.9498,4.9513,4.9507,4.9514,4.9513,4.9498,4.9551,4.9559,4.9597,4.9522,4.9684,4.969,4.9694,4.9757,4.9769,4.9779,0,0,0,0,0,4.943,4.9489,4.9474,4.9483,4.9521,4.956,4.9565,4.9548,4.9517,4.9544,4.9541,4.9512,4.9589,4.9556,4.9565,4.9605,4.9682,4.9688,4.9694,4.9752,4.9767,4.9779,0,0,0,0,0,0,4.9487,4.949,4.9472,4.9536,4.9549,4.9551,4.9585,4.9564,4.9584,4.9578,4.9555,4.9557,4.9611,4.9613,4.9577,4.9674,4.963,4.9638,4.9671,4.9685,4.9695,4.9693,4.9525,0,0,0,0,0,4.9508,4.954,4.954,4.9596,4.9603,4.9594,4.961,4.9596,4.9607,4.9612,4.9612,4.9623,4.9649,4.9667,4.9691,4.9758,4.9758,4.9789,4.98,4.9809,4.9816,4.985,4.9864,4.9718,4.9718,4.9718,0,0,4.955,4.9555,4.9577,4.9608,4.9616,4.9649,4.9598,4.9635,4.9659,4.9617,4.9664,4.9665,4.9676,4.9735,4.976,4.9738,4.9856,4.9817,4.9824,4.9826,4.9858,4.9872,4.9884,4.9722,4.9721,4.9721,0,0,4.9643,4.9651,4.9698,4.9707,4.972,4.9713,4.9725,4.9731,4.973,4.9777,4.9746,4.9774,4.982,4.9829,4.9839,4.9936,4.991,4.9944,5.0,5.0034,5.0046,5.0056,5.0089,5.0102,4.9951,4.9952,4.9952,0,4.9693,4.9743,4.9725,4.9764,4.9778,4.9743,4.979,4.9799,4.9819,4.9829,4.9804,4.9861,4.9865,4.9925,4.9949,4.9959,4.997,4.9943,5.0046,5.0056,5.0065,5.0096,5.0109,4.9956,4.9955,4.9955,4.9954,0,4.9803,4.9838,4.9874,4.9895,4.9914,4.9956,4.9944,4.9964,4.9949,4.9944,4.9993,4.9997,5.0021,5.0035,5.0019,5.0092,5.0078,5.005,5.0004,5.0083,5.0112,5.0124,4.9961,4.996,4.9959,4.9958,0,0,4.9933,4.9944,4.9958,4.9966,4.9978,5.0004,5.0045,5.0069,5.0087,5.0101,5.0134,5.0174,5.0148,5.016,5.0146,5.0175,5.0251,5.0143,5.0143,5.0162,5.033,5.035,5.0365,5.0234,5.0236,5.0238,5.0328,0,5.0025,5.0096,5.0081,5.0151,5.0182,5.0149,5.0184,5.0194,5.0191,5.0216,5.0212,5.024,5.0204,5.0211,5.0239,5.0236,5.0284,5.0229,5.0263,5.0265,5.0261,5.038,5.0402,5.0487,5.034,5.0342,5.0343,0,5.0141,5.0161,5.0234,5.0241,5.0253,5.0285,5.0306,5.0331,5.0342,5.0337,5.0351,5.033,5.0369,5.0324,5.0377,5.034,5.0353,5.0354,5.0357,5.0358,5.0308,5.0384,5.0514,5.0527,5.0361,5.036,5.0359,0,5.0228,5.0273,5.0322,5.0331,5.034,5.0363,5.0367,5.0376,5.0391,5.0409,5.0419,5.0441,5.0453,5.047,5.0455,5.0424,5.051,5.0464,5.0507,5.0507,5.0526,5.0525,5.0659,5.0536,5.0536,5.0535,5.0535,0,5.0331,5.0377,5.0361,5.0392,5.0441,5.0423,5.0473,5.0473,5.0481,5.0509,5.0482,5.0509,5.0489,5.0515,5.0504,5.0549,5.0554,5.0551,5.0547,5.0553,5.0553,5.0561,5.0554,5.0539,5.0538,5.0537,5.0537,0,5.0436,5.0428,5.0479,5.0483,5.0485,5.0522,5.0525,5.0552,5.0547,5.0584,5.0591,5.0583,5.0611,5.0599,5.0629,5.0621,5.0679,5.0668,5.0676,5.0672,5.0715,5.0711,5.0858,5.0876,5.0742,5.0744,5.0745,0,5.0502,5.0537,5.0545,5.0563,5.057,5.0599,5.0614,5.0598,5.0615,5.063,5.0655,5.0681,5.0701,5.0748,5.0744,5.0766,5.0755,5.0805,5.0758,5.0763,5.0755,5.0753,5.0756,5.0814,5.0816,5.0817,5.0818,0,5.0621,5.0615,5.0639,5.0662,5.0682,5.0699,5.0714,5.073,5.0714,5.0734,5.0764,5.0779,5.081,5.0836,5.0856,5.0859,5.0836,5.0833,5.0844,5.0849,5.0852,5.0851,5.07,5.0829,5.0828,5.0827,5.0827,5.0826,5.0707,5.0736,5.0747,5.0774,5.0784,5.0798,5.0824,5.0822,5.0847,5.0871,5.0859,5.0893,5.0902,5.0926,5.0933,5.0958,5.0938,5.0954,5.0958,5.0962,5.0967,5.0849,5.0962,5.0961,5.0961,5.0961,5.096,0,5.0823,5.0829,5.0855,5.0876,5.0898,5.0875,5.089,5.0909,5.094,5.0951,5.0971,5.1004,5.1029,5.1027,5.105,5.1071,5.1061,5.1077,5.1075,5.1076,5.0984,5.0972,5.1085,5.1085,5.1085,5.1085,5.1085,5.1085,5.0886,5.0934,5.0929,5.098,5.0985,5.1018,5.1028,5.1041,5.1049,5.1088,5.1109,5.1108,5.1113,5.1136,5.1158,5.1156,5.1166,5.1186,5.1181,5.1095,5.1083,5.1071,5.1059,5.1189,5.1189,5.127,5.1271,5.1272]}]]